| time (UTC) | temp F | wind direction | speed MPH | gust MPH | rain 1hr in | rain 24hr in | rain mn in | humidity % | barometer mb |
| 20260902005330 | 81 | 65 | 2.0 | 7.0 | 0.00 | 0.00 | 0.00 | 67 | 1017.1 |
| 20260902004822 | 81 | 160 | 3.0 | 6.0 | 0.00 | 0.00 | 0.00 | 67 | 1017.1 |
| 20260902004313 | 81 | 13 | 2.0 | 8.0 | 0.00 | 0.00 | 0.00 | 67 | 1017.1 |
| 20260902003846 | 81 | 99 | 4.0 | 8.0 | 0.00 | 0.00 | 0.00 | 67 | 1017.0 |
| 20260902003321 | 81 | 80 | 1.0 | 4.0 | 0.00 | 0.00 | 0.00 | 68 | 1017.0 |
| 20260902002832 | 81 | 70 | 2.0 | 5.0 | 0.00 | 0.00 | 0.00 | 68 | 1017.0 |
| 20260902002325 | 82 | 103 | 2.0 | 7.0 | 0.00 | 0.00 | 0.00 | 67 | 1016.9 |
| 20260902001817 | 82 | 119 | 3.0 | 10.0 | 0.00 | 0.00 | 0.00 | 66 | 1016.9 |
| 20260902001328 | 82 | 137 | 3.0 | 17.0 | 0.00 | 0.00 | 0.00 | 66 | 1016.9 |
| 20260902000840 | 82 | 294 | 7.0 | 14.0 | 0.00 | 0.00 | 0.00 | 67 | 1016.8 |
| 20260902000331 | 82 | 360 | 4.0 | 11.0 | 0.00 | 0.00 | 0.00 | 68 | 1016.7 |
| 20260901235820 | 82 | 9 | 2.0 | 8.0 | 0.00 | 0.00 | 0.00 | 68 | 1016.7 |
| 20260901235332 | 82 | 246 | 3.0 | 8.0 | 0.00 | 0.00 | 0.00 | 69 | 1016.6 |
| 20260901234844 | 82 | 88 | 3.0 | 7.0 | 0.00 | 0.00 | 0.00 | 68 | 1016.6 |
| 20260901234318 | 82 | 129 | 1.0 | 3.0 | 0.00 | 0.00 | 0.00 | 69 | 1016.6 |
| 20260901233830 | 83 | 296 | 1.0 | 4.0 | 0.00 | 0.00 | 0.00 | 69 | 1016.7 |
| 20260901233322 | 83 | 58 | 1.0 | 5.0 | 0.00 | 0.00 | 0.00 | 68 | 1016.7 |
| 20260901232813 | 83 | 190 | 1.0 | 8.0 | 0.00 | 0.00 | 0.00 | 68 | 1016.8 |
| 20260901232346 | 83 | 144 | 3.0 | 8.0 | 0.00 | 0.00 | 0.00 | 67 | 1016.8 |
| 20260901231816 | 84 | 274 | 1.0 | 5.0 | 0.00 | 0.00 | 0.00 | 69 | 1016.8 |
| 20260901231328 | 84 | 49 | 1.0 | 3.0 | 0.00 | 0.00 | 0.00 | 68 | 1016.7 |
| 20260901230841 | 84 | 125 | 1.0 | 6.0 | 0.00 | 0.00 | 0.00 | 68 | 1016.7 |
| 20260901230332 | 84 | 132 | 2.0 | 6.0 | 0.00 | 0.00 | 0.00 | 67 | 1016.7 |
| 20260901225827 | 85 | 101 | 2.0 | 4.0 | 0.00 | 0.00 | 0.00 | 68 | 1016.7 |
| 20260901225319 | 85 | 149 | 2.0 | 5.0 | 0.00 | 0.00 | 0.00 | 68 | 1016.7 |
| 20260901224830 | 85 | 85 | 2.0 | 4.0 | 0.00 | 0.00 | 0.00 | 68 | 1016.7 |
| 20260901224322 | 85 | 109 | 1.0 | 6.0 | 0.00 | 0.00 | 0.00 | 68 | 1016.8 |
| 20260901223814 | 85 | 309 | 2.0 | 6.0 | 0.00 | 0.00 | 0.00 | 67 | 1016.7 |
| 20260901223347 | 85 | 35 | 3.0 | 8.0 | 0.00 | 0.00 | 0.00 | 68 | 1016.8 |
| 20260901222818 | 85 | 298 | 1.0 | 8.0 | 0.00 | 0.00 | 0.00 | 67 | 1016.8 |
| 20260901222330 | 85 | 292 | 2.0 | 4.0 | 0.00 | 0.00 | 0.00 | 67 | 1016.8 |
| 20260901221842 | 85 | 126 | 1.0 | 5.0 | 0.00 | 0.00 | 0.00 | 66 | 1016.8 |
| 20260901221353 | 85 | 103 | 1.0 | 6.0 | 0.00 | 0.00 | 0.00 | 65 | 1016.8 |
| 20260901220828 | 86 | 126 | 2.0 | 6.0 | 0.00 | 0.00 | 0.00 | 65 | 1016.8 |
| 20260901220320 | 86 | 132 | 2.0 | 8.0 | 0.00 | 0.00 | 0.00 | 65 | 1016.8 |
| 20260901215832 | 86 | 127 | 3.0 | 8.0 | 0.00 | 0.00 | 0.00 | 65 | 1016.8 |
| 20260901215323 | 86 | 246 | 2.0 | 7.0 | 0.00 | 0.00 | 0.00 | 66 | 1016.8 |
| 20260901214815 | 86 | 172 | 2.0 | 7.0 | 0.00 | 0.00 | 0.00 | 65 | 1016.8 |
| 20260901214347 | 87 | 144 | 2.0 | 9.0 | 0.00 | 0.00 | 0.00 | 65 | 1016.7 |
| 20260901213820 | 87 | 144 | 1.0 | 9.0 | 0.00 | 0.00 | 0.00 | 64 | 1016.7 |
| 20260901213332 | 88 | 135 | 2.0 | 7.0 | 0.00 | 0.00 | 0.00 | 65 | 1016.6 |
| 20260901212824 | 88 | 114 | 2.0 | 7.0 | 0.00 | 0.00 | 0.00 | 64 | 1016.6 |
| 20260901212320 | 88 | 303 | 2.0 | 10.0 | 0.00 | 0.00 | 0.00 | 64 | 1016.6 |
| 20260901211832 | 88 | 101 | 4.0 | 10.0 | 0.00 | 0.00 | 0.00 | 64 | 1016.7 |
| 20260901211324 | 88 | 237 | 3.0 | 8.0 | 0.00 | 0.00 | 0.00 | 65 | 1016.7 |
| 20260901210816 | 87 | 94 | 5.0 | 9.0 | 0.00 | 0.00 | 0.00 | 65 | 1016.8 |
| 20260901210328 | 87 | 161 | 3.0 | 9.0 | 0.00 | 0.00 | 0.00 | 65 | 1016.8 |
| 20260901205819 | 87 | 123 | 3.0 | 10.0 | 0.00 | 0.00 | 0.00 | 65 | 1016.7 |
| 20260901205332 | 87 | 306 | 4.0 | 11.0 | 0.00 | 0.00 | 0.00 | 64 | 1016.7 |
| 20260901204823 | 87 | 74 | 3.0 | 9.0 | 0.00 | 0.00 | 0.00 | 65 | 1016.7 |
| 20260901204319 | 87 | 108 | 3.0 | 8.0 | 0.00 | 0.00 | 0.00 | 65 | 1016.7 |
| 20260901203831 | 87 | 113 | 2.0 | 8.0 | 0.00 | 0.00 | 0.00 | 65 | 1016.7 |
| 20260901203323 | 87 | 143 | 3.0 | 12.0 | 0.00 | 0.00 | 0.00 | 64 | 1016.7 |
| 20260901202814 | 87 | 157 | 5.0 | 12.0 | 0.00 | 0.00 | 0.00 | 63 | 1016.7 |
| 20260901202327 | 88 | 67 | 3.0 | 10.0 | 0.00 | 0.00 | 0.00 | 62 | 1016.8 |
| 20260901201819 | 88 | 141 | 5.0 | 10.0 | 0.00 | 0.00 | 0.00 | 62 | 1016.7 |
| 20260901201331 | 88 | 211 | 4.0 | 9.0 | 0.00 | 0.00 | 0.00 | 62 | 1016.7 |
| 20260901200823 | 88 | 101 | 5.0 | 9.0 | 0.00 | 0.00 | 0.00 | 60 | 1016.7 |
| 20260901200319 | 89 | 76 | 4.0 | 11.0 | 0.00 | 0.00 | 0.00 | 60 | 1016.6 |
| 20260901195831 | 89 | 172 | 4.0 | 11.0 | 0.00 | 0.00 | 0.00 | 59 | 1016.6 |
| 20260901195322 | 89 | 145 | 3.0 | 13.0 | 0.00 | 0.00 | 0.00 | 59 | 1016.6 |
| 20260901194814 | 89 | 298 | 6.0 | 14.0 | 0.00 | 0.00 | 0.00 | 57 | 1016.7 |
| 20260901194326 | 90 | 81 | 6.0 | 14.0 | 0.00 | 0.00 | 0.00 | 57 | 1016.7 |
| 20260901193818 | 90 | 159 | 3.0 | 12.0 | 0.00 | 0.00 | 0.00 | 59 | 1016.9 |
| 20260901193330 | 90 | 244 | 4.0 | 12.0 | 0.00 | 0.00 | 0.00 | 57 | 1016.9 |
| 20260901192823 | 90 | 171 | 5.0 | 13.0 | 0.00 | 0.00 | 0.00 | 56 | 1017.0 |
| 20260901192318 | 90 | 360 | 4.0 | 13.0 | 0.00 | 0.00 | 0.00 | 57 | 1017.1 |
| 20260901191831 | 91 | 311 | 6.0 | 13.0 | 0.00 | 0.00 | 0.00 | 56 | 1017.1 |
| 20260901191322 | 91 | 311 | 4.0 | 12.0 | 0.00 | 0.00 | 0.00 | 58 | 1017.3 |
| 20260901190326 | 90 | 252 | 5.0 | 17.0 | 0.00 | 0.00 | 0.00 | 56 | 1017.4 |
| 20260901185816 | 91 | 40 | 6.0 | 11.0 | 0.00 | 0.00 | 0.00 | 56 | 1017.4 |
| 20260901185328 | 91 | 146 | 4.0 | 13.0 | 0.00 | 0.00 | 0.00 | 56 | 1017.5 |
| 20260901184819 | 91 | 163 | 5.0 | 13.0 | 0.00 | 0.00 | 0.00 | 56 | 1017.5 |
| 20260901184335 | 91 | 181 | 5.0 | 12.0 | 0.00 | 0.00 | 0.00 | 56 | 1017.5 |
| 20260901183827 | 91 | 241 | 6.0 | 17.0 | 0.00 | 0.00 | 0.00 | 56 | 1017.4 |
| 20260901183318 | 91 | 275 | 8.0 | 15.0 | 0.00 | 0.00 | 0.00 | 55 | 1017.6 |
| 20260901182850 | 91 | 360 | 5.0 | 16.0 | 0.00 | 0.00 | 0.00 | 56 | 1017.6 |
| 20260901182321 | 91 | 295 | 7.0 | 16.0 | 0.00 | 0.00 | 0.00 | 56 | 1017.7 |
| 20260901181812 | 91 | 89 | 5.0 | 16.0 | 0.00 | 0.00 | 0.00 | 57 | 1017.6 |
| 20260901181324 | 91 | 68 | 5.0 | 13.0 | 0.00 | 0.00 | 0.00 | 56 | 1017.8 |
| 20260901180816 | 90 | 155 | 9.0 | 14.0 | 0.00 | 0.00 | 0.00 | 58 | 1017.7 |
| 20260901180348 | 90 | 67 | 7.0 | 12.0 | 0.00 | 0.00 | 0.00 | 59 | 1017.7 |
| 20260901175818 | 88 | 107 | 4.0 | 9.0 | 0.00 | 0.00 | 0.00 | 63 | 1017.8 |
| 20260901175314 | 88 | 127 | 4.0 | 9.0 | 0.00 | 0.00 | 0.00 | 63 | 1017.8 |
| 20260901174826 | 89 | 163 | 4.0 | 11.0 | 0.00 | 0.00 | 0.00 | 61 | 1018.0 |
| 20260901174318 | 90 | 127 | 5.0 | 12.0 | 0.00 | 0.00 | 0.00 | 60 | 1018.0 |
| 20260901173830 | 90 | 180 | 5.0 | 12.0 | 0.00 | 0.00 | 0.00 | 60 | 1017.9 |
| 20260901173321 | 90 | 121 | 5.0 | 11.0 | 0.00 | 0.00 | 0.00 | 61 | 1017.8 |
| 20260901172813 | 89 | 104 | 3.0 | 15.0 | 0.00 | 0.00 | 0.00 | 63 | 1017.7 |
| 20260901172325 | 89 | 69 | 7.0 | 18.0 | 0.00 | 0.00 | 0.00 | 63 | 1017.6 |
| 20260901171838 | 89 | 126 | 7.0 | 18.0 | 0.00 | 0.00 | 0.00 | 61 | 1017.7 |
| 20260901171313 | 89 | 115 | 3.0 | 9.0 | 0.00 | 0.00 | 0.00 | 64 | 1017.8 |
| 20260901170825 | 89 | 157 | 4.0 | 9.0 | 0.00 | 0.00 | 0.00 | 61 | 1017.9 |
| 20260901170316 | 90 | 137 | 3.0 | 9.0 | 0.00 | 0.00 | 0.00 | 61 | 1017.8 |
| 20260901165828 | 90 | 103 | 6.0 | 9.0 | 0.00 | 0.00 | 0.00 | 61 | 1017.9 |
| 20260901165320 | 89 | 161 | 5.0 | 9.0 | 0.00 | 0.00 | 0.00 | 63 | 1018.0 |
| 20260901164832 | 88 | 148 | 2.0 | 6.0 | 0.00 | 0.00 | 0.00 | 66 | 1017.9 |
| 20260901164325 | 87 | 119 | 4.0 | 10.0 | 0.00 | 0.00 | 0.00 | 65 | 1018.2 |
| 20260901163816 | 87 | 275 | 4.0 | 10.0 | 0.00 | 0.00 | 0.00 | 66 | 1018.3 |
| 20260901163313 | 87 | 273 | 1.0 | 7.0 | 0.00 | 0.00 | 0.00 | 66 | 1018.2 |
| 20260901162825 | 87 | 101 | 3.0 | 7.0 | 0.00 | 0.00 | 0.00 | 67 | 1018.1 |
| 20260901162317 | 86 | 155 | 3.0 | 6.0 | 0.00 | 0.00 | 0.00 | 69 | 1018.2 |
| 20260901161849 | 86 | 167 | 3.0 | 7.0 | 0.00 | 0.00 | 0.00 | 68 | 1018.2 |
| 20260901161320 | 85 | 159 | 0.0 | 12.0 | 0.00 | 0.00 | 0.00 | 69 | 1018.2 |
| 20260901160812 | 85 | 309 | 4.0 | 12.0 | 0.00 | 0.00 | 0.00 | 68 | 1018.2 |
| 20260901160325 | 86 | 84 | 5.0 | 9.0 | 0.00 | 0.00 | 0.00 | 66 | 1018.3 |
| 20260901155814 | 87 | 120 | 2.0 | 9.0 | 0.00 | 0.00 | 0.00 | 66 | 1018.3 |
| 20260901155346 | 87 | 259 | 4.0 | 9.0 | 0.00 | 0.00 | 0.00 | 66 | 1018.2 |
| 20260901154817 | 86 | 128 | 3.0 | 18.0 | 0.00 | 0.00 | 0.00 | 67 | 1018.3 |
| 20260901154313 | 87 | 90 | 6.0 | 18.0 | 0.00 | 0.00 | 0.00 | 66 | 1018.3 |
| 20260901153825 | 87 | 298 | 7.0 | 14.0 | 0.00 | 0.00 | 0.00 | 63 | 1018.3 |
| 20260901153317 | 88 | 63 | 2.0 | 12.0 | 0.00 | 0.00 | 0.00 | 65 | 1018.2 |
| 20260901152829 | 88 | 310 | 5.0 | 10.0 | 0.00 | 0.00 | 0.00 | 67 | 1018.3 |
| 20260901152341 | 88 | 153 | 4.0 | 10.0 | 0.00 | 0.00 | 0.00 | 66 | 1018.4 |
| 20260901151832 | 88 | 127 | 4.0 | 10.0 | 0.00 | 0.00 | 0.00 | 66 | 1018.4 |
| 20260901151324 | 87 | 126 | 2.0 | 11.0 | 0.00 | 0.00 | 0.00 | 70 | 1018.5 |
| 20260901150816 | 87 | 291 | 4.0 | 11.0 | 0.00 | 0.00 | 0.00 | 68 | 1018.4 |
| 20260901150313 | 86 | 286 | 1.0 | 6.0 | 0.00 | 0.00 | 0.00 | 71 | 1018.4 |
| 20260901145823 | 86 | 170 | 2.0 | 9.0 | 0.00 | 0.00 | 0.00 | 69 | 1018.4 |
| 20260901145315 | 86 | 157 | 7.0 | 10.0 | 0.00 | 0.00 | 0.00 | 69 | 1018.3 |
| 20260901144847 | 85 | 165 | 2.0 | 6.0 | 0.00 | 0.00 | 0.00 | 71 | 1018.4 |
| 20260901144318 | 85 | 61 | 1.0 | 8.0 | 0.00 | 0.00 | 0.00 | 71 | 1018.4 |
| 20260901143830 | 85 | 113 | 2.0 | 9.0 | 0.00 | 0.00 | 0.00 | 70 | 1018.5 |
| 20260901143342 | 85 | 140 | 2.0 | 9.0 | 0.00 | 0.00 | 0.00 | 70 | 1018.5 |
| 20260901142813 | 85 | 137 | 3.0 | 6.0 | 0.00 | 0.00 | 0.00 | 70 | 1018.5 |
| 20260901142326 | 85 | 101 | 2.0 | 8.0 | 0.00 | 0.00 | 0.00 | 71 | 1018.4 |
| 20260901141838 | 84 | 142 | 4.0 | 8.0 | 0.00 | 0.00 | 0.00 | 71 | 1018.5 |
| 20260901141350 | 84 | 186 | 2.0 | 5.0 | 0.00 | 0.00 | 0.00 | 72 | 1018.5 |
| 20260901140824 | 83 | 117 | 3.0 | 5.0 | 0.00 | 0.00 | 0.00 | 72 | 1018.6 |
| 20260901140317 | 83 | 165 | 2.0 | 7.0 | 0.00 | 0.00 | 0.00 | 73 | 1018.6 |
| 20260901135828 | 83 | 170 | 2.0 | 7.0 | 0.00 | 0.00 | 0.00 | 73 | 1018.6 |
| 20260901135320 | 83 | 158 | 4.0 | 6.0 | 0.00 | 0.00 | 0.00 | 73 | 1018.6 |
| 20260901134832 | 82 | 155 | 3.0 | 6.0 | 0.00 | 0.00 | 0.00 | 75 | 1018.6 |
| 20260901134324 | 82 | 139 | 3.0 | 6.0 | 0.00 | 0.00 | 0.00 | 74 | 1018.6 |
| 20260901133815 | 81 | 161 | 3.0 | 6.0 | 0.00 | 0.00 | 0.00 | 75 | 1018.7 |
| 20260901133348 | 81 | 175 | 4.0 | 7.0 | 0.00 | 0.00 | 0.00 | 76 | 1018.7 |
| 20260901132819 | 80 | 171 | 4.0 | 7.0 | 0.00 | 0.00 | 0.00 | 77 | 1018.7 |
| 20260901132314 | 80 | 167 | 4.0 | 7.0 | 0.00 | 0.00 | 0.00 | 77 | 1018.7 |
| 20260901131847 | 79 | 160 | 4.0 | 7.0 | 0.00 | 0.00 | 0.00 | 78 | 1018.7 |
| 20260901131338 | 78 | 167 | 3.0 | 6.0 | 0.00 | 0.00 | 0.00 | 79 | 1018.8 |
| 20260901130850 | 78 | 175 | 2.0 | 7.0 | 0.00 | 0.00 | 0.00 | 79 | 1018.8 |
| 20260901130340 | 78 | 178 | 2.0 | 7.0 | 0.00 | 0.00 | 0.00 | 78 | 1018.8 |
| 20260901125830 | 78 | 149 | 4.0 | 7.0 | 0.00 | 0.00 | 0.00 | 78 | 1018.8 |
| 20260901125343 | 78 | 175 | 3.0 | 6.0 | 0.00 | 0.00 | 0.00 | 78 | 1018.7 |
| 20260901124813 | 78 | 165 | 4.0 | 7.0 | 0.00 | 0.00 | 0.00 | 78 | 1018.7 |
| 20260901124325 | 78 | 173 | 4.0 | 7.0 | 0.00 | 0.00 | 0.00 | 77 | 1018.8 |
| 20260901123818 | 78 | 171 | 4.0 | 5.0 | 0.00 | 0.00 | 0.00 | 77 | 1018.9 |
| 20260901123330 | 78 | 173 | 3.0 | 6.0 | 0.00 | 0.00 | 0.00 | 78 | 1018.9 |
| 20260901122826 | 78 | 175 | 2.0 | 6.0 | 0.00 | 0.00 | 0.00 | 78 | 1018.9 |
| 20260901122318 | 77 | 181 | 3.0 | 6.0 | 0.00 | 0.00 | 0.00 | 79 | 1019.0 |
| 20260901121829 | 77 | 167 | 3.0 | 5.0 | 0.00 | 0.00 | 0.00 | 79 | 1019.0 |
| 20260901121341 | 77 | 179 | 4.0 | 6.0 | 0.00 | 0.00 | 0.00 | 78 | 1019.0 |
| 20260901120832 | 77 | 170 | 3.0 | 6.0 | 0.00 | 0.00 | 0.00 | 79 | 1019.0 |
| 20260901120325 | 76 | 170 | 3.0 | 7.0 | 0.00 | 0.00 | 0.00 | 79 | 1018.9 |
| 20260901115814 | 76 | 183 | 3.0 | 7.0 | 0.00 | 0.00 | 0.00 | 79 | 1018.9 |
| 20260901115326 | 76 | 175 | 3.0 | 6.0 | 0.00 | 0.00 | 0.00 | 79 | 1018.8 |
| 20260901114838 | 76 | 169 | 4.0 | 6.0 | 0.00 | 0.00 | 0.00 | 79 | 1018.8 |
| 20260901114313 | 76 | 169 | 3.0 | 6.0 | 0.00 | 0.00 | 0.00 | 79 | 1018.7 |
| 20260901113826 | 75 | 188 | 4.0 | 6.0 | 0.00 | 0.00 | 0.00 | 80 | 1018.6 |
| 20260901113317 | 75 | 176 | 4.0 | 7.0 | 0.00 | 0.00 | 0.00 | 80 | 1018.6 |
| 20260901112849 | 75 | 180 | 3.0 | 7.0 | 0.00 | 0.00 | 0.00 | 80 | 1018.5 |
| 20260901112320 | 75 | 166 | 4.0 | 7.0 | 0.00 | 0.00 | 0.00 | 80 | 1018.5 |
| 20260901111832 | 75 | 178 | 4.0 | 7.0 | 0.00 | 0.00 | 0.00 | 80 | 1018.5 |
| 20260901111324 | 75 | 174 | 4.0 | 8.0 | 0.00 | 0.00 | 0.00 | 80 | 1018.4 |
| 20260901110816 | 75 | 179 | 4.0 | 6.0 | 0.00 | 0.00 | 0.00 | 80 | 1018.5 |
| 20260901110327 | 75 | 153 | 3.0 | 6.0 | 0.00 | 0.00 | 0.00 | 80 | 1018.5 |
| 20260901105821 | 75 | 176 | 3.0 | 7.0 | 0.00 | 0.00 | 0.00 | 80 | 1018.5 |
| 20260901105333 | 75 | 173 | 3.0 | 6.0 | 0.00 | 0.00 | 0.00 | 80 | 1018.3 |
| 20260901104825 | 75 | 163 | 2.0 | 6.0 | 0.00 | 0.00 | 0.00 | 79 | 1018.3 |
| 20260901104316 | 75 | 169 | 3.0 | 6.0 | 0.00 | 0.00 | 0.00 | 79 | 1018.3 |
| 20260901103829 | 75 | 174 | 3.0 | 6.0 | 0.00 | 0.00 | 0.00 | 79 | 1018.2 |
| 20260901103320 | 75 | 175 | 2.0 | 4.0 | 0.00 | 0.00 | 0.00 | 78 | 1018.1 |
| 20260901102832 | 76 | 169 | 2.0 | 5.0 | 0.00 | 0.00 | 0.00 | 78 | 1018.1 |
| 20260901102324 | 76 | 171 | 3.0 | 6.0 | 0.00 | 0.00 | 0.00 | 78 | 1018.1 |
| 20260901101820 | 76 | 165 | 4.0 | 6.0 | 0.00 | 0.00 | 0.00 | 78 | 1018.1 |
| 20260901101333 | 76 | 164 | 3.0 | 5.0 | 0.00 | 0.00 | 0.00 | 78 | 1018.1 |
| 20260901100824 | 76 | 176 | 3.0 | 5.0 | 0.00 | 0.00 | 0.00 | 78 | 1018.1 |
| 20260901100316 | 76 | 179 | 3.0 | 5.0 | 0.00 | 0.00 | 0.00 | 78 | 1018.2 |
| 20260901095827 | 76 | 171 | 2.0 | 6.0 | 0.00 | 0.00 | 0.00 | 78 | 1018.2 |
| 20260901095319 | 76 | 170 | 3.0 | 6.0 | 0.00 | 0.00 | 0.00 | 79 | 1018.2 |
| 20260901094830 | 76 | 171 | 2.0 | 5.0 | 0.00 | 0.00 | 0.00 | 79 | 1018.2 |
| 20260901094321 | 75 | 182 | 2.0 | 6.0 | 0.00 | 0.00 | 0.00 | 79 | 1018.2 |
| 20260901093853 | 75 | 180 | 1.0 | 6.0 | 0.00 | 0.00 | 0.00 | 79 | 1018.2 |
| 20260901093328 | 75 | 171 | 2.0 | 5.0 | 0.00 | 0.00 | 0.00 | 80 | 1018.2 |
| 20260901092820 | 75 | 178 | 3.0 | 5.0 | 0.00 | 0.00 | 0.00 | 80 | 1018.1 |
| 20260901092331 | 75 | 173 | 2.0 | 5.0 | 0.00 | 0.00 | 0.00 | 80 | 1018.1 |
| 20260901091823 | 75 | 173 | 3.0 | 6.0 | 0.00 | 0.00 | 0.00 | 80 | 1018.1 |
| 20260901091315 | 75 | 165 | 3.0 | 6.0 | 0.00 | 0.00 | 0.00 | 80 | 1018.1 |
| 20260901090827 | 75 | 165 | 3.0 | 7.0 | 0.00 | 0.00 | 0.00 | 80 | 1018.0 |
| 20260901090320 | 75 | 185 | 4.0 | 6.0 | 0.00 | 0.00 | 0.00 | 80 | 1018.1 |
| 20260901085829 | 75 | 167 | 3.0 | 5.0 | 0.00 | 0.00 | 0.00 | 80 | 1018.1 |
| 20260901085325 | 75 | 178 | 3.0 | 6.0 | 0.00 | 0.00 | 0.00 | 80 | 1018.1 |
| 20260901084817 | 75 | 176 | 3.0 | 6.0 | 0.00 | 0.00 | 0.00 | 79 | 1018.1 |
| 20260901084329 | 76 | 180 | 3.0 | 5.0 | 0.00 | 0.00 | 0.00 | 79 | 1018.0 |
| 20260901083820 | 76 | 175 | 4.0 | 6.0 | 0.00 | 0.00 | 0.00 | 79 | 1018.1 |
| 20260901083332 | 76 | 169 | 4.0 | 6.0 | 0.00 | 0.00 | 0.00 | 79 | 1018.1 |
| 20260901082824 | 76 | 176 | 5.0 | 7.0 | 0.00 | 0.00 | 0.00 | 79 | 1018.2 |
| 20260901082316 | 75 | 184 | 3.0 | 5.0 | 0.00 | 0.00 | 0.00 | 79 | 1018.1 |
| 20260901081827 | 75 | 174 | 3.0 | 5.0 | 0.00 | 0.00 | 0.00 | 80 | 1018.2 |
| 20260901081323 | 75 | 171 | 4.0 | 6.0 | 0.00 | 0.00 | 0.00 | 80 | 1018.2 |
| 20260901080814 | 75 | 193 | 4.0 | 7.0 | 0.00 | 0.00 | 0.00 | 80 | 1018.2 |
| 20260901080327 | 75 | 169 | 3.0 | 9.0 | 0.00 | 0.00 | 0.00 | 80 | 1018.2 |
| 20260901075817 | 75 | 167 | 5.0 | 9.0 | 0.00 | 0.00 | 0.00 | 81 | 1018.3 |
| 20260901075329 | 75 | 167 | 4.0 | 7.0 | 0.00 | 0.00 | 0.00 | 82 | 1018.3 |
| 20260901074821 | 75 | 167 | 4.0 | 7.0 | 0.00 | 0.00 | 0.00 | 82 | 1018.3 |
| 20260901074332 | 74 | 142 | 4.0 | 7.0 | 0.00 | 0.00 | 0.00 | 82 | 1018.4 |
| 20260901073823 | 74 | 150 | 4.0 | 6.0 | 0.00 | 0.00 | 0.00 | 82 | 1018.3 |
| 20260901073319 | 74 | 178 | 3.0 | 6.0 | 0.00 | 0.00 | 0.00 | 82 | 1018.3 |
| 20260901072831 | 74 | 182 | 4.0 | 5.0 | 0.00 | 0.00 | 0.00 | 83 | 1018.3 |
| 20260901072323 | 74 | 178 | 3.0 | 5.0 | 0.00 | 0.00 | 0.00 | 83 | 1018.3 |
| 20260901071814 | 74 | 166 | 3.0 | 6.0 | 0.00 | 0.00 | 0.00 | 82 | 1018.3 |
| 20260901071327 | 74 | 178 | 2.0 | 6.0 | 0.00 | 0.00 | 0.00 | 82 | 1018.3 |
| 20260901070818 | 74 | 175 | 3.0 | 4.0 | 0.00 | 0.00 | 0.00 | 82 | 1018.2 |
| 20260901070331 | 74 | 173 | 2.0 | 4.0 | 0.00 | 0.00 | 0.00 | 82 | 1018.2 |
| 20260901065821 | 75 | 176 | 1.0 | 4.0 | 0.00 | 0.00 | 0.00 | 82 | 1018.4 |
| 20260901065317 | 75 | 173 | 1.0 | 4.0 | 0.00 | 0.00 | 0.00 | 82 | 1018.4 |
| 20260901064830 | 75 | 172 | 1.0 | 5.0 | 0.00 | 0.00 | 0.00 | 82 | 1018.4 |
| 20260901064342 | 75 | 164 | 2.0 | 5.0 | 0.00 | 0.00 | 0.00 | 81 | 1018.4 |
| 20260901063814 | 75 | 161 | 2.0 | 6.0 | 0.00 | 0.00 | 0.00 | 81 | 1018.5 |
| 20260901063325 | 75 | 167 | 3.0 | 6.0 | 0.00 | 0.00 | 0.00 | 81 | 1018.5 |
| 20260901062817 | 75 | 171 | 3.0 | 5.0 | 0.00 | 0.00 | 0.00 | 81 | 1018.6 |
| 20260901062329 | 76 | 174 | 3.0 | 7.0 | 0.00 | 0.00 | 0.00 | 80 | 1018.7 |
| 20260901061841 | 76 | 173 | 4.0 | 7.0 | 0.00 | 0.00 | 0.00 | 80 | 1018.7 |
| 20260901061331 | 76 | 180 | 4.0 | 6.0 | 0.00 | 0.00 | 0.00 | 80 | 1018.7 |
| 20260901060823 | 76 | 179 | 4.0 | 6.0 | 0.00 | 0.00 | 0.00 | 80 | 1018.8 |
| 20260901060338 | 76 | 173 | 3.0 | 5.0 | 0.00 | 0.00 | 0.00 | 80 | 1018.8 |
| 20260901055828 | 76 | 178 | 4.0 | 6.0 | 0.00 | 0.00 | 0.00 | 80 | 1018.9 |
| 20260901055320 | 76 | 169 | 3.0 | 4.0 | 0.00 | 0.00 | 0.00 | 80 | 1018.9 |
| 20260901054832 | 76 | 175 | 3.0 | 5.0 | 0.00 | 0.00 | 0.00 | 79 | 1018.9 |
| 20260901054324 | 76 | 169 | 3.0 | 6.0 | 0.00 | 0.00 | 0.00 | 79 | 1018.9 |
| 20260901053816 | 76 | 169 | 4.0 | 6.0 | 0.00 | 0.00 | 0.00 | 79 | 1018.9 |
| 20260901053328 | 76 | 150 | 3.0 | 5.0 | 0.00 | 0.00 | 0.00 | 78 | 1019.0 |
| 20260901052819 | 76 | 161 | 2.0 | 6.0 | 0.00 | 0.00 | 0.00 | 78 | 1019.0 |
| 20260901052315 | 76 | 172 | 3.0 | 6.0 | 0.00 | 0.00 | 0.00 | 79 | 1019.1 |
| 20260901051827 | 76 | 184 | 3.0 | 7.0 | 0.00 | 0.00 | 0.00 | 79 | 1019.0 |
| 20260901051319 | 76 | 161 | 4.0 | 7.0 | 0.00 | 0.00 | 0.00 | 79 | 1019.0 |
| 20260901050831 | 76 | 186 | 4.0 | 7.0 | 0.00 | 0.00 | 0.00 | 79 | 1019.1 |
| 20260901050324 | 76 | 188 | 3.0 | 5.0 | 0.00 | 0.00 | 0.00 | 78 | 1019.1 |
| 20260901045813 | 76 | 172 | 3.0 | 5.0 | 0.00 | 0.00 | 0.00 | 78 | 1019.0 |
| 20260901045325 | 76 | 163 | 3.0 | 5.0 | 0.00 | 0.00 | 0.00 | 78 | 1019.1 |
| 20260901044816 | 76 | 182 | 2.0 | 5.0 | 0.00 | 0.00 | 0.00 | 78 | 1019.1 |
| 20260901044328 | 76 | 174 | 3.0 | 6.0 | 0.00 | 0.00 | 0.00 | 78 | 1019.1 |
| 20260901043844 | 77 | 167 | 2.0 | 6.0 | 0.00 | 0.00 | 0.00 | 78 | 1019.1 |
| 20260901043315 | 76 | 185 | 4.0 | 6.0 | 0.00 | 0.00 | 0.00 | 78 | 1019.1 |
| 20260901042827 | 76 | 162 | 4.0 | 5.0 | 0.00 | 0.00 | 0.00 | 79 | 1019.2 |
| 20260901042318 | 76 | 178 | 4.0 | 5.0 | 0.00 | 0.00 | 0.00 | 79 | 1019.1 |
| 20260901041831 | 77 | 178 | 3.0 | 5.0 | 0.00 | 0.00 | 0.00 | 78 | 1019.1 |
| 20260901041321 | 77 | 184 | 3.0 | 6.0 | 0.00 | 0.00 | 0.00 | 78 | 1019.3 |
| 20260901040833 | 77 | 191 | 3.0 | 6.0 | 0.00 | 0.00 | 0.00 | 78 | 1019.3 |
| 20260901040325 | 76 | 190 | 2.0 | 5.0 | 0.00 | 0.00 | 0.00 | 79 | 1019.4 |
| 20260901035820 | 76 | 184 | 2.0 | 6.0 | 0.00 | 0.00 | 0.00 | 79 | 1019.3 |
| 20260901035351 | 76 | 175 | 3.0 | 4.0 | 0.00 | 0.00 | 0.00 | 80 | 1019.3 |
| 20260901034821 | 76 | 171 | 2.0 | 4.0 | 0.00 | 0.00 | 0.00 | 80 | 1019.4 |
| 20260901034313 | 76 | 169 | 2.0 | 5.0 | 0.00 | 0.00 | 0.00 | 81 | 1019.5 |
| 20260901033846 | 76 | 180 | 2.0 | 5.0 | 0.00 | 0.00 | 0.00 | 82 | 1019.4 |
| 20260901033317 | 76 | 165 | 3.0 | 4.0 | 0.00 | 0.00 | 0.00 | 82 | 1019.5 |
| 20260901032829 | 76 | 173 | 3.0 | 5.0 | 0.00 | 0.00 | 0.00 | 82 | 1019.6 |
| 20260901032321 | 76 | 171 | 2.0 | 5.0 | 0.00 | 0.00 | 0.00 | 82 | 1019.6 |
| 20260901031832 | 76 | 176 | 3.0 | 4.0 | 0.00 | 0.00 | 0.00 | 82 | 1019.6 |
| 20260901031324 | 76 | 167 | 2.0 | 5.0 | 0.00 | 0.00 | 0.00 | 83 | 1019.7 |
| 20260901030840 | 76 | 182 | 4.0 | 5.0 | 0.00 | 0.00 | 0.00 | 83 | 1019.7 |
| 20260901030331 | 76 | 161 | 3.0 | 6.0 | 0.00 | 0.00 | 0.00 | 84 | 1019.7 |
| 20260901025841 | 76 | 157 | 3.0 | 6.0 | 0.00 | 0.00 | 0.00 | 84 | 1019.7 |
| 20260901025331 | 76 | 172 | 2.0 | 5.0 | 0.00 | 0.00 | 0.00 | 84 | 1019.7 |
| 20260901024823 | 76 | 156 | 2.0 | 5.0 | 0.00 | 0.00 | 0.00 | 83 | 1019.8 |
| 20260901024314 | 76 | 173 | 2.0 | 6.0 | 0.00 | 0.00 | 0.00 | 83 | 1019.8 |
| 20260901023826 | 76 | 161 | 2.0 | 4.0 | 0.00 | 0.00 | 0.00 | 82 | 1019.8 |
| 20260901023317 | 76 | 174 | 2.0 | 5.0 | 0.00 | 0.00 | 0.00 | 82 | 1019.7 |
| 20260901022829 | 76 | 179 | 2.0 | 5.0 | 0.00 | 0.00 | 0.00 | 81 | 1019.7 |
| 20260901022325 | 76 | 174 | 2.0 | 4.0 | 0.00 | 0.00 | 0.00 | 82 | 1019.7 |
| 20260901021838 | 76 | 173 | 1.0 | 3.0 | 0.00 | 0.00 | 0.00 | 82 | 1019.7 |
| 20260901021329 | 76 | 175 | 2.0 | 3.0 | 0.00 | 0.00 | 0.00 | 82 | 1019.8 |
| 20260901020822 | 76 | 172 | 1.0 | 3.0 | 0.00 | 0.00 | 0.00 | 82 | 1019.8 |
| 20260901020333 | 76 | 174 | 0.0 | 6.0 | 0.00 | 0.00 | 0.00 | 82 | 1019.8 |
| 20260901015822 | 76 | 173 | 2.0 | 6.0 | 0.00 | 0.00 | 0.00 | 82 | 1019.8 |
| 20260901015314 | 76 | 178 | 2.0 | 5.0 | 0.00 | 0.00 | 0.00 | 83 | 1019.7 |
| 20260901014826 | 76 | 171 | 0.0 | 3.0 | 0.00 | 0.00 | 0.00 | 84 | 1019.7 |
| 20260901014318 | 77 | 178 | 0.0 | 3.0 | 0.00 | 0.00 | 0.00 | 82 | 1019.7 |
| 20260901013850 | 77 | 164 | 0.0 | 2.0 | 0.00 | 0.00 | 0.00 | 79 | 1019.6 |
| 20260901013324 | 77 | 177 | 0.0 | 2.0 | 0.00 | 0.00 | 0.00 | 79 | 1019.5 |
| 20260901012815 | 77 | 171 | 0.0 | 2.0 | 0.00 | 0.00 | 0.00 | 79 | 1019.4 |
| 20260901012347 | 77 | 170 | 0.0 | 3.0 | 0.00 | 0.00 | 0.00 | 78 | 1019.3 |
| 20260901011838 | 77 | 169 | 2.0 | 4.0 | 0.00 | 0.00 | 0.00 | 78 | 1019.2 |
| 20260901011329 | 76 | 161 | 2.0 | 4.0 | 0.00 | 0.00 | 0.00 | 79 | 1019.1 |
| 20260901010820 | 76 | 171 | 3.0 | 4.0 | 0.00 | 0.00 | 0.00 | 79 | 1019.0 |
| 20260901010352 | 76 | 170 | 3.0 | 5.0 | 0.00 | 0.00 | 0.00 | 79 | 1019.0 |
| 20260901005821 | 76 | 171 | 3.0 | 4.0 | 0.00 | 0.00 | 0.00 | 80 | 1019.0 |